Hourly Data Report for October 04, 2016

All times are specified in Local Standard Time (LST). Add 1 hour to adjust for Daylight Saving Time where and when it is observed.

KITCHENER/WATERLOO
ONTARIO

43°27'39.000" N
80°22'43.000" W
321.60 m
6144239
71368
YKF

Download Data

Hourly Data (October 2016)
Hourly Data Report for October 4, 2016
Temp Definition
°C
Dew Point Temp Definition
°C
Rel Hum Definition
%
Wind Dir Definition
10's deg

Wind Spd Definition
km/h
Visibility Definition
km
Stn Press Definition
kPa
Hmdx Definition


Wind Chill Definition


Weather Definition


TIME
00:00 Legend Double Dagger 11.9 11.4 97 7 5 16.1 98.41     LegendNANA
01:00 Legend Double Dagger 11.9 11.4 97 7 4 4.0 98.43     Fog
02:00 Legend Double Dagger 10.2 9.8 97 36 4 0.4 98.44     Rain,Fog
03:00 Legend Double Dagger 12.6 12.3 98 6 5 6.4 98.46     Fog
04:00 Legend Double Dagger 13.1 12.8 98 9 8 1.2 98.50     Fog
05:00 Legend Double Dagger 13.3 13.0 98 10 8 1.2 98.53     Fog
06:00 Legend Double Dagger 13.5 13.2 98 8 9 3.2 98.57     Fog
07:00 Legend Double Dagger 13.7 13.4 98 8 5 4.8 98.63     Fog
08:00 Legend Double Dagger 13.9 13.4 97 8 9 2.8 98.69     Fog
09:00 Legend Double Dagger 13.9 13.4 97 6 11 3.6 98.72     Fog
10:00 Legend Double Dagger 16.5 13.9 85 12 8 16.1 98.71     LegendNANA
11:00 Legend Double Dagger 18.8 14.0 73 12 15 16.1 98.66     LegendNANA
12:00 Legend Double Dagger 18.7 13.9 73 12 15 16.1 98.62     LegendNANA
13:00 Legend Double Dagger 19.8 13.4 66 11 17 16.1 98.58     LegendNANA
14:00 Legend Double Dagger 20.2 13.8 66 9 17 16.1 98.54     LegendNANA
15:00 Legend Double Dagger 19.8 13.5 67 11 18 16.1 98.53     LegendNANA
16:00 Legend Double Dagger 19.3 13.3 68 10 15 16.1 98.55     LegendNANA
17:00 Legend Double Dagger 18.0 13.4 74 9 13 16.1 98.55     LegendNANA
18:00 Legend Double Dagger 15.6 13.3 86 9 15 16.1 98.56     LegendNANA
19:00 Legend Double Dagger 14.2 13.1 93 9 15 16.1 98.59     LegendNANA
20:00 Legend Double Dagger 14.2 13.3 94 9 15 12.9 98.60     LegendNANA
21:00 Legend Double Dagger 14.2 13.4 95 9 17 8.1 98.58     Fog
22:00 Legend Double Dagger 14.9 14.0 94 9 21 8.1 98.58     Fog
23:00 Legend Double Dagger 15.1 14.0 93 10 15 9.7 98.57     Fog

Notes on Data Quality.

Legend

  • E = Estimated
  • M = Missing
  • NA = Not Available
  • ‡ = Partner data that is not subject to review by the National Climate Archives
Date modified: